Regional Weather Roundup
Issued by NWS

Home | Current Version | Previous Version | Graphics & Text | Print | Product List | Glossary On
Versions: 1 2 3 4 5 6 7 8 9 10 11 12 13 14 15 16 17 18 19 20 21 22 23 24 25 26 27 28 29 30 31 32 33 34 35 36 37 38 39 40 41 42 43 44 45 46 47 48 49 50
000
ASUS43 KIND 222359
RWRIN

WEATHER ROUNDUP FOR INDIANA
NATIONAL WEATHER SERVICE INDIANAPOLIS IN
700 PM EST SAT NOV 22 2014

NOTE: "FAIR" INDICATES FEW OR NO CLOUDS BELOW 12,000 FEET WITH NO
SIGNIFICANT WEATHER AND/OR OBSTRUCTIONS TO VISIBILITY.

* - STATION DOES NOT REPORT WEATHER SUCH AS PRECIPITATION OR FOG.

+ - STATION NOT QUALITY CONTROLLED BY THE NATIONAL WEATHER SERVICE.
    USE DATA WITH CAUTION...ESPECIALLY DEWPOINT AND RELATIVE
    HUMIDITY OBSERVATIONS.

INZ001>003-010>013-019-020-230100-
NORTHWEST INDIANA

CITY           SKY/WX    TMP DP  RH WIND       PRES   REMARKS
GARY /AIRPORT/ CLOUDY    54  45  71 S12G23    29.90S
MONTICELLO +   CLOUDY    52  45  76 S10       29.95S
VALPARAISO     NOT AVBL

$$

LMZ046-743>745-230100-
SOUTHERN LAKE MICHIGAN

STATION/POSITION TIME  TEMP WIND        PRES
                       AIR  DIR/SP/G
                 (UTC) (F)  (DEG/KT/KT) (MB)
MICHIGAN CITY    2300   51  170/ 15/ 18   N/A

$$

INZ004-005-014>016-021>024-230100-
NORTH CENTRAL INDIANA

CITY           SKY/WX    TMP DP  RH WIND       PRES   REMARKS
GOSHEN         CLOUDY    49  44  83 S12       29.94R
6HR MIN TEMP:  44; 6HR MAX TEMP:  50; 6HR PCP:  0.05;

SOUTH BEND     CLOUDY    47  45  93 SW9       29.94R
6HR MIN TEMP:  43; 6HR MAX TEMP:  47; 6HR PCP:  0.02;


$$

INZ006>009-017-018-025>027-230100-
NORTHEAST INDIANA

CITY           SKY/WX    TMP DP  RH WIND       PRES   REMARKS
ANGOLA *+      CLOUDY    48  39  71 SW14      29.95R
FORT WAYNE     CLOUDY    50  42  74 S13       29.98F
6HR MIN TEMP:  46; 6HR MAX TEMP:  50; 6HR PCP:  0.03;


$$

INZ028-029-035-036-043>045-051>053-230100-
WEST CENTRAL INDIANA

CITY           SKY/WX    TMP DP  RH WIND       PRES   REMARKS
GREENCASTLE +  CLOUDY    55  41  58 S9        30.00F
LAFAYETTE      CLOUDY    53  43  68 S8        29.97R
6HR MIN TEMP:  49; 6HR MAX TEMP:  55; 6HR PCP: TRACE;

TERRE HAUTE    CLOUDY    55  42  61 S10       30.00F
6HR MIN TEMP:  55; 6HR MAX TEMP:  57;


$$

INZ030>032-037>040-046>048-054>057-064-065-230100-
CENTRAL INDIANA

CITY           SKY/WX    TMP DP  RH WIND       PRES   REMARKS
INDIANAPOLIS   CLOUDY    53  40  61 S12       30.00F
6HR MIN TEMP:  52; 6HR MAX TEMP:  56; 6HR PCP:  0.01;

-EAGLE CREEK   CLOUDY    54  40  59 S6        30.00S
6HR MIN TEMP:  53; 6HR MAX TEMP:  57;

KOKOMO *+      CLOUDY    52  43  71 SW14      29.98S
MT COMFORT *+  CLOUDY    52  32  46 S8        30.02S
SHELBYVILLE    CLOUDY    53  41  63 S8        30.03F
6HR MIN TEMP:  52; 6HR MAX TEMP:  57; 6HR PCP:  0.01;


$$

INZ033-034-041-042-049-050-058-059-230100-
EAST CENTRAL INDIANA

CITY           SKY/WX    TMP DP  RH WIND       PRES   REMARKS
MUNCIE         CLOUDY    53  41  63 S9        30.01F
6HR MIN TEMP:  49; 6HR MAX TEMP:  54; 6HR PCP:  0.01;


$$

INZ060-061-067>069-081>083-085>088-230100-
SOUTHWEST INDIANA

CITY           SKY/WX    TMP DP  RH WIND       PRES   REMARKS
EVANSVILLE     CLEAR     59  38  45 S7        30.04S
6HR MIN TEMP:  59; 6HR MAX TEMP:  64; 6HR PCP: TRACE;

HUNTINGBURG *+ PTCLDY    55  36  47 S12G17    30.05F
6HR MIN TEMP:  55; 6HR MAX TEMP:  63;


$$

INZ062-063-066-070>080-084-089>092-230100-
SOUTH CENTRAL AND SOUTHEAST INDIANA

CITY           SKY/WX    TMP DP  RH WIND       PRES   REMARKS
BLOOMINGTON    CLOUDY    55  41  59 S10G25    30.03S
6HR MIN TEMP:  55; 6HR MAX TEMP:  58; 6HR PCP: TRACE;

SEYMOUR +      CLOUDY    57  37  47 S7        30.07

$$



USA.gov is the U.S. government's official web portal to all federal, state and local government web resources and services.